RH
81 86 86 85 85 85 85 83 84 86 87 86 84 83 83 82 82 81 82 82 82 82 84 84 84 85 86 84 85 87 84 84 82 78 72 59 43 29 25 26 26 26 30 38 45 49 50 49 48 47 50 52 53 55 59 62 65 67 67 65 68 73 81 83 83 81 80 81 82 83 82 82 83 84 84 82 81 81 81 83 84 84 83 82 84 85 86 86 84 83 85 85 85 85 87 91 94 96 96 98 98 98 98
82 86 87 88 89 90 87 85 86 88 87 84 83 84 86 85 85 85 84 82 81 80 81 83 83 82 83 84 84 84 85 85 83 79 74 62 47 34 30 31 31 32 37 43 47 49 50 50 50 51 54 55 57 59 61 64 67 69 68 65 65 69 77 82 84 83 80 81 82 82 82 81 81 82 82 81 82 81 78 82 84 85 84 82 82 83 84 85 85 85 85 85 83 82 84 89 91 92 94 96 96 96 96
83 86 86 87 89 90 88 86 86 85 85 83 83 85 87 86 85 83 82 81 82 84 84 82 83 84 84 85 82 81 86 86 85 83 78 68 53 40 34 36 38 41 46 49 50 50 49 49 51 53 56 57 59 61 62 65 69 72 71 66 63 64 72 78 81 82 81 80 80 80 80 81 80 80 81 81 81 80 80 81 83 85 84 81 81 81 80 81 82 82 83 83 82 81 82 83 84 86 90 91 92 92 91
88 89 87 88 88 88 86 84 83 84 85 84 82 82 85 83 81 79 80 83 86 88 87 83 84 87 87 87 85 85 89 87 85 84 83 74 59 44 38 39 44 50 56 56 55 52 50 49 50 53 56 58 59 61 62 66 71 74 75 69 65 65 71 76 79 80 81 80 79 79 79 79 79 79 79 79 80 80 81 80 81 82 82 82 81 80 81 81 81 82 81 82 82 82 82 81 81 82 84 85 86 88 86
87 89 89 88 87 85 83 82 82 86 90 87 84 84 87 83 81 82 83 87 88 87 85 83 86 89 88 88 89 89 90 86 84 84 87 80 64 49 41 41 45 52 59 58 56 53 50 48 49 52 54 57 58 60 62 66 71 75 77 74 73 74 77 77 78 78 79 78 78 78 78 79 78 78 79 79 79 80 80 81 80 80 81 82 81 80 81 82 82 82 82 82 82 82 82 82 83 83 82 82 83 84 82
86 88 88 85 84 83 80 81 85 88 89 86 87 87 86 83 83 85 88 90 90 89 88 86 85 85 85 88 90 89 84 85 85 85 86 80 66 52 44 42 43 47 54 57 56 54 51 49 48 49 51 54 57 59 62 66 71 75 77 77 79 80 80 78 78 78 77 76 77 77 78 79 79 78 77 78 79 79 79 80 81 81 81 80 80 80 80 82 82 81 82 82 82 83 83 82 82 83 83 85 85 84 83
84 85 85 81 80 81 82 82 84 84 84 86 86 85 85 84 83 85 90 88 88 89 90 89 88 86 85 88 90 90 89 85 84 84 84 79 66 53 46 44 41 40 43 50 53 55 53 49 47 47 49 51 54 58 61 65 69 73 75 78 81 82 80 79 78 76 74 75 76 77 79 78 78 78 77 78 78 80 82 81 81 82 84 82 82 82 82 84 84 83 84 83 83 82 83 82 83 84 84 85 85 84 84
81 83 85 83 82 82 84 83 83 83 84 85 85 84 84 85 84 83 85 85 87 88 86 86 86 86 87 89 88 88 89 88 87 87 86 81 66 51 45 42 39 35 34 41 48 54 55 52 47 44 45 48 52 56 61 66 69 72 71 75 80 82 78 78 77 75 72 74 76 77 78 77 77 78 79 80 80 81 84 84 84 84 83 84 85 85 84 85 85 85 86 85 84 84 83 83 84 84 85 86 85 84 85
83 84 86 86 88 89 89 86 84 83 85 85 85 84 84 85 86 86 85 86 86 87 88 88 86 86 87 89 88 87 87 87 88 88 88 81 64 48 41 38 35 33 33 41 50 57 60 56 50 45 42 45 49 55 61 67 71 71 66 71 78 82 80 78 77 75 71 74 76 76 76 74 78 82 82 82 82 84 85 85 84 84 83 85 85 85 84 84 84 85 86 84 84 85 85 85 85 85 85 86 86 85 86
87 87 87 89 90 90 90 90 88 85 84 85 85 85 85 85 86 86 85 85 84 84 83 85 87 89 89 89 89 88 87 86 87 87 86 76 59 43 38 36 35 36 40 49 56 61 62 59 55 50 44 43 47 53 61 68 73 72 63 72 78 81 80 78 77 75 72 74 75 75 74 77 80 84 85 84 84 85 85 84 83 84 85 84 83 82 82 82 82 83 84 83 83 83 83 85 85 85 85 86 86 85 85
88 87 88 90 91 92 91 91 89 86 84 84 84 85 84 85 85 85 86 86 85 85 84 85 87 88 91 88 87 86 85 85 84 81 75 63 53 46 39 39 40 43 50 56 60 62 62 60 57 54 50 42 43 51 61 69 73 71 62 72 78 80 79 78 77 74 72 73 74 74 73 78 82 84 83 84 86 86 86 84 83 82 82 82 82 81 81 81 81 82 83 83 84 84 84 84 83 83 83 84 84 84 83
86 85 85 89 91 93 95 93 90 86 84 84 84 85 85 85 86 86 86 85 85 86 85 87 87 87 88 86 83 80 77 75 72 67 59 50 46 45 43 44 48 53 59 62 63 63 63 60 58 57 56 43 41 49 64 71 73 70 61 72 78 80 78 78 77 74 71 72 73 74 74 80 83 85 83 82 84 86 84 83 83 82 81 80 80 80 80 80 81 81 81 82 82 82 82 82 82 82 83 82 82 82 82
82 81 82 87 89 91 96 95 93 89 86 85 87 88 88 86 86 86 86 86 87 87 87 88 88 87 83 79 74 71 68 65 60 54 47 46 46 46 44 47 53 60 66 67 66 64 62 60 59 58 59 49 43 46 64 72 73 69 61 73 78 79 77 77 75 74 73 73 73 74 76 82 84 85 85 85 85 84 83 82 81 81 81 81 80 80 80 79 79 79 80 81 81 81 80 80 80 80 81 81 81 81 80
76 76 82 87 89 91 94 96 93 89 88 87 89 90 90 88 87 87 86 86 87 88 89 88 86 84 78 73 67 62 59 55 50 46 46 47 46 45 44 49 56 63 67 67 65 63 60 59 58 58 61 56 51 51 61 68 70 67 62 73 77 78 79 77 74 72 71 75 76 77 78 83 85 86 85 85 84 83 82 81 81 81 81 81 80 79 79 78 78 78 79 79 79 79 79 79 79 79 79 79 79 79 79
74 78 86 87 90 92 94 96 93 90 90 89 89 90 91 90 89 88 86 86 87 88 88 86 83 80 75 69 63 59 59 53 49 47 48 47 45 44 44 50 57 64 66 66 63 60 57 56 56 58 62 59 56 55 58 63 64 64 63 72 75 77 78 76 72 70 70 76 80 82 83 85 85 85 85 84 83 82 80 80 81 81 81 80 80 79 77 77 77 77 77 78 78 78 78 78 79 79 79 79 79 79 79
76 84 88 87 89 92 94 96 95 92 91 89 89 90 90 89 88 87 85 87 88 88 86 80 76 73 70 64 64 67 71 63 58 55 52 50 48 46 46 53 61 66 68 66 62 58 55 55 55 57 61 59 56 55 56 57 57 58 62 70 73 74 76 74 71 68 69 77 82 84 85 86 86 85 85 84 82 81 79 79 80 81 81 79 78 77 76 75 75 76 77 78 78 78 78 79 80 81 82 81 80 80 81
80 88 89 85 87 90 94 97 96 93 90 88 89 89 89 88 87 86 86 87 87 85 79 74 69 66 64 62 68 76 83 76 70 66 62 57 53 51 51 58 65 68 68 65 61 58 55 55 55 56 59 58 56 54 56 53 51 52 59 67 71 72 74 74 70 68 69 77 81 83 84 84 84 84 84 83 82 81 79 79 79 80 80 78 77 76 76 73 74 77 78 78 78 79 79 80 81 81 82 82 82 82 82
82 88 89 84 84 88 94 95 95 93 91 90 89 87 86 86 85 85 85 86 84 80 75 70 65 61 61 64 71 79 85 83 79 74 70 66 61 57 57 63 67 67 66 63 60 57 56 55 55 56 57 57 56 55 56 53 47 46 56 65 70 72 72 73 71 69 71 76 79 81 81 81 81 82 82 82 81 80 80 80 79 78 79 77 76 76 77 73 76 79 79 79 79 79 81 81 81 81 81 81 82 83 83
79 84 87 83 82 84 91 92 93 93 92 91 87 83 79 80 81 81 81 83 82 78 72 67 64 63 65 69 73 77 79 82 78 73 69 68 66 63 61 65 66 65 62 60 57 56 55 54 54 55 56 55 54 55 58 55 46 41 52 62 68 71 71 72 70 69 72 76 78 79 78 77 77 78 79 80 80 80 80 80 79 78 78 76 76 77 79 80 81 82 80 80 80 80 81 80 80 80 80 80 82 82 82
74 79 83 81 80 80 86 89 90 91 91 89 84 80 79 78 78 77 74 77 75 69 63 64 67 70 71 73 74 73 72 73 71 67 64 65 66 66 64 65 64 61 59 57 56 55 53 51 52 53 55 53 53 55 59 59 47 38 47 60 67 69 69 70 68 68 73 78 79 78 75 74 74 75 76 77 80 81 80 79 78 77 77 76 76 78 80 82 83 83 81 81 82 82 80 79 79 79 78 80 80 81 82
71 74 79 79 77 76 78 81 83 83 83 82 80 78 81 78 75 71 67 67 65 63 62 67 72 75 74 73 71 68 65 64 62 61 60 61 64 65 64 63 61 59 58 56 55 53 51 44 47 52 53 52 52 55 60 61 50 40 45 59 66 68 67 68 68 70 77 79 79 77 74 72 72 73 74 77 80 82 80 79 77 76 75 75 77 79 82 82 83 82 81 81 82 82 80 79 78 79 79 80 81 81 82
71 72 75 74 73 72 70 72 74 75 75 74 74 74 80 79 77 73 66 67 69 70 70 73 76 76 75 71 67 64 61 59 58 57 57 58 60 61 61 60 58 57 56 55 53 51 50 40 44 51 51 50 51 53 58 60 51 41 40 58 66 67 66 67 69 73 79 80 79 76 72 70 71 72 74 76 79 80 80 78 77 76 74 75 77 81 82 83 83 82 81 81 82 82 80 80 79 79 80 81 81 82 82
73 71 70 67 66 65 65 69 72 74 74 70 70 74 82 82 82 79 72 74 76 77 75 75 75 73 68 65 62 60 59 58 57 56 55 56 57 57 58 57 57 56 54 52 50 49 49 39 42 49 50 49 49 51 56 57 49 39 31 52 64 68 66 68 71 74 78 79 78 76 72 70 71 72 75 77 78 79 78 78 77 76 74 75 78 81 82 83 83 82 80 79 80 80 79 79 80 80 80 81 82 82 82
73 70 67 64 62 63 67 73 77 79 80 70 70 76 85 86 85 82 76 77 78 78 76 74 71 67 59 59 59 59 58 58 57 55 55 55 55 56 56 55 54 53 51 49 47 46 46 39 42 48 49 48 48 49 52 53 46 36 25 40 56 66 66 69 74 77 77 77 77 75 72 71 72 74 76 78 79 78 79 79 78 77 74 75 79 82 82 82 82 81 78 76 76 77 76 77 79 80 80 80 82 82 82
72 69 66 64 65 68 73 80 82 82 83 72 71 76 84 84 82 79 75 74 75 74 72 68 65 62 59 59 59 59 59 57 56 56 56 56 56 55 55 54 53 51 49 48 45 42 41 43 45 47 48 48 47 47 49 49 44 34 23 28 44 59 64 69 75 79 78 77 77 75 71 71 73 76 78 79 79 80 80 80 79 78 76 75 78 81 80 80 79 78 77 75 74 74 74 75 78 80 80 80 81 82 82
68 67 66 66 69 73 78 81 82 82 83 74 71 73 80 77 74 72 70 70 69 67 65 62 60 59 58 57 57 58 58 56 55 56 56 56 56 55 54 53 52 51 48 47 44 40 39 44 46 46 46 46 46 46 47 47 43 34 22 19 32 50 59 67 75 80 80 78 77 75 71 71 74 77 79 79 80 80 80 80 79 78 78 78 78 78 77 76 75 74 75 74 74 74 73 75 78 80 81 82 82 82 82
65 65 65 66 70 74 78 79 79 80 83 77 72 71 75 71 67 66 66 66 65 63 61 60 59 59 58 57 57 57 58 56 56 56 55 55 54 54 54 54 53 51 48 45 43 41 39 38 41 45 44 44 44 44 46 46 41 33 21 16 26 41 55 68 78 82 81 79 78 76 73 73 74 77 78 78 79 80 80 79 78 77 77 78 77 76 75 74 73 72 72 72 72 73 74 77 79 81 82 83 82 81 82
62 63 63 65 70 74 76 75 76 78 81 78 73 71 73 68 66 64 64 65 64 62 60 60 60 60 60 58 57 57 57 58 58 57 57 55 50 47 49 52 53 51 48 43 41 41 42 40 41 42 43 43 43 43 44 43 39 32 19 17 24 37 54 71 80 83 81 79 79 77 74 73 74 76 77 77 77 77 78 78 77 75 75 76 75 74 73 74 73 72 71 71 72 73 76 79 81 82 82 82 77 74 81
61 62 62 65 69 73 74 74 74 75 79 78 73 69 71 69 67 65 64 65 64 63 61 60 61 62 63 58 52 51 58 58 57 57 58 55 51 49 49 52 52 50 46 42 39 39 40 41 42 42 42 42 42 43 42 41 38 31 18 19 24 36 55 74 81 82 82 80 79 78 76 75 75 76 75 75 75 76 76 75 75 74 74 73 73 74 74 74 74 72 70 71 72 74 77 80 82 83 84 82 78 75 80
61 62 61 65 69 72 73 72 73 74 76 76 72 67 68 69 69 67 66 66 65 64 63 61 61 63 65 59 54 52 58 58 58 58 58 58 57 56 55 54 52 49 46 42 40 39 40 41 42 43 42 42 42 41 41 41 39 32 18 20 26 37 55 74 80 80 80 80 79 77 75 74 75 75 74 73 73 73 73 73 73 73 73 73 73 73 75 74 74 73 70 70 72 75 78 80 81 81 81 80 80 80 81
61 62 61 65 68 70 71 71 72 73 74 75 71 66 65 69 71 70 68 68 66 65 64 61 61 62 66 63 60 58 60 60 60 59 59 58 58 58 57 55 53 49 46 43 41 36 30 32 36 40 40 40 40 40 40 41 40 34 22 23 27 37 54 73 78 77 76 77 76 75 74 74 74 74 74 74 73 72 72 73 73 74 74 74 74 74 74 74 74 74 72 70 72 74 77 79 80 81 81 79 79 79 79
61 62 62 65 67 69 70 70 71 72 73 74 71 67 66 69 71 71 69 68 67 66 64 63 62 63 66 65 62 61 63 62 59 58 60 60 59 58 56 55 53 50 47 44 40 36 36 31 29 31 37 40 40 40 39 40 39 36 30 24 26 35 50 69 74 73 73 74 74 74 73 73 73 73 73 72 73 73 73 73 74 74 74 73 73 73 73 73 74 74 74 71 71 73 75 77 79 80 79 78 78 78 79
61 62 63 64 67 69 69 69 70 71 72 73 71 69 68 70 71 70 68 67 67 66 65 66 66 65 64 64 64 64 65 61 58 57 60 60 60 59 57 55 53 50 48 43 40 39 42 39 36 34 40 40 40 40 40 40 40 42 47 30 25 30 42 62 69 69 68 72 73 73 72 72 71 71 71 70 70 71 72 73 73 73 73 73 73 72 71 71 72 73 74 71 70 70 72 75 77 78 79 78 77 77 78
60 61 63 64 66 68 69 69 70 70 71 72 71 69 69 70 71 70 67 66 66 66 67 67 67 67 66 65 65 66 65 60 57 56 59 60 60 59 58 55 53 50 48 42 40 39 41 42 40 39 41 41 40 40 40 39 42 48 57 45 32 25 31 48 62 67 62 65 69 71 72 71 71 71 70 69 68 68 68 70 71 71 71 72 72 71 71 70 70 70 71 71 70 68 70 72 74 76 78 78 75 74 76
60 61 62 64 65 67 68 68 69 69 70 71 71 69 69 70 70 69 67 67 67 66 67 66 66 67 67 66 66 66 66 64 61 59 58 58 58 57 57 55 52 49 47 41 39 39 40 41 39 37 39 40 40 39 39 39 43 49 57 56 42 28 23 32 47 59 61 57 60 65 72 71 71 71 70 69 67 65 64 65 65 66 68 69 70 71 71 71 70 69 69 70 69 68 68 70 72 74 75 77 74 72 73
59 60 61 63 65 66 66 67 67 68 69 70 71 70 69 69 69 68 68 67 67 67 67 65 65 65 66 67 67 66 66 65 63 61 57 57 57 57 56 53 50 47 45 41 39 38 40 38 36 35 36 38 39 39 39 39 43 49 56 57 48 36 23 22 30 42 53 52 49 51 60 66 69 70 70 69 67 64 62 61 60 60 61 62 65 67 69 71 71 70 68 68 68 68 68 69 70 72 73 75 74 71 67
58 59 60 62 63 64 65 65 65 66 67 69 70 69 68 68 68 68 68 68 68 67 67 65 65 65 66 67 67 67 66 65 64 62 59 58 57 57 55 51 49 46 44 40 38 37 35 31 32 35 37 38 38 39 40 40 43 48 55 55 50 41 28 21 20 26 37 43 42 40 40 48 55 60 63 63 61 59 56 56 55 53 52 54 57 61 65 68 70 70 69 67 67 67 68 69 70 71 72 73 74 73 65
56 57 58 60 62 63 64 64 64 65 65 67 69 69 68 67 67 67 68 68 68 68 67 65 65 65 66 67 67 67 68 66 65 62 61 59 57 55 53 51 49 46 42 39 37 36 31 29 32 37 39 38 38 39 41 41 42 46 52 53 49 43 34 24 19 17 22 29 32 32 30 32 36 42 46 47 47 45 42 42 41 40 39 41 44 50 57 63 68 70 70 68 66 65 66 68 69 70 71 72 74 73 68
55 56 57 59 60 61 62 63 63 64 64 65 67 68 68 67 67 67 68 69 68 67 66 66 66 66 67 66 66 67 69 67 65 63 61 59 57 54 52 49 48 46 42 38 36 33 28 31 35 39 40 38 37 38 41 42 42 44 48 51 49 44 37 29 23 18 16 19 21 22 23 23 25 28 30 31 30 29 26 27 26 24 23 21 24 30 39 51 60 67 69 68 66 64 64 66 68 70 71 72 73 73 73
56 56 57 58 59 60 61 61 62 63 63 64 65 67 67 67 67 68 69 69 68 67 65 66 67 67 68 68 68 68 69 67 65 62 61 59 57 54 51 49 47 44 42 38 33 30 28 33 37 40 40 39 36 36 40 42 42 42 44 49 51 49 44 37 31 25 22 21 19 18 17 18 19 21 22 22 21 21 19 19 19 18 17 16 15 16 19 31 44 56 65 66 66 64 62 63 65 68 70 71 72 73 73
58 58 58 59 60 60 60 60 61 62 63 64 65 66 67 67 67 68 69 69 68 66 65 66 67 68 69 69 69 69 69 67 65 62 60 58 56 54 51 48 46 44 41 37 32 29 29 34 38 40 40 39 37 35 38 41 42 41 42 48 51 52 51 46 40 35 32 30 27 24 20 18 18 18 19 20 20 20 21 21 20 19 18 17 16 15 13 16 25 38 53 61 64 63 61 61 63 65 68 70 71 72 72
61 61 61 62 62 62 61 61 61 62 63 64 65 66 67 67 68 68 69 68 67 66 65 66 67 68 68 67 67 67 66 65 64 62 59 57 55 53 50 48 45 43 40 36 33 31 31 34 37 38 40 40 38 36 35 39 40 41 41 45 49 52 54 52 49 44 40 39 37 33 29 26 23 22 21 22 23 23 23 23 22 20 19 18 17 16 15 13 15 21 33 47 57 61 60 60 60 62 65 67 69 71 72
64 64 64 65 65 64 63 62 62 62 63 64 65 67 68 68 68 68 68 67 67 66 66 67 67 67 67 67 66 66 64 63 61 60 58 56 54 51 49 47 44 41 38 36 35 34 34 35 35 36 38 39 39 37 34 36 38 40 40 42 45 49 52 53 51 48 46 45 43 41 37 34 30 27 25 25 25 25 25 24 23 21 20 19 17 16 15 14 13 14 17 27 39 49 56 57 59 60 62 65 67 69 71
65 65 66 66 67 67 66 65 64 63 63 65 66 68 69 68 68 68 68 67 66 66 68 69 68 67 64 66 67 67 65 62 59 57 56 55 52 49 46 44 43 40 38 37 36 36 35 35 34 33 34 36 38 37 34 32 33 36 39 40 42 44 49 52 52 50 47 48 48 46 42 37 33 30 27 26 26 26 25 24 23 21 20 19 18 17 15 14 13 13 12 15 21 28 38 47 53 57 60 63 65 68 70
66 66 66 67 67 68 68 67 66 65 64 66 67 69 70 69 69 69 68 68 68 68 70 71 70 68 63 64 66 68 66 63 59 56 54 52 50 47 44 42 41 39 37 37 37 37 36 35 33 32 30 31 32 33 33 30 29 32 37 39 38 39 43 49 51 50 46 46 47 46 43 37 33 29 27 26 25 25 24 23 22 21 20 19 18 17 15 14 13 12 12 11 12 15 19 28 39 49 58 61 63 66 68
67 67 67 67 68 68 69 69 68 66 65 67 68 70 70 70 70 69 69 69 70 71 72 72 72 69 66 63 64 67 68 65 62 58 55 53 51 49 46 42 39 36 36 37 37 37 36 34 32 30 27 26 26 27 30 30 30 31 36 37 35 34 36 42 46 47 44 41 40 40 39 35 31 27 25 24 23 23 22 21 21 20 19 19 18 17 15 14 13 12 12 11 11 11 12 16 24 36 51 58 62 64 66
69 68 67 68 68 68 69 70 69 68 67 68 69 70 71 70 70 70 70 71 71 72 73 73 72 71 69 67 66 66 69 68 66 63 59 57 55 52 49 42 37 34 34 35 36 36 35 33 31 28 24 23 22 23 25 29 32 35 39 38 35 32 31 33 36 38 37 33 32 31 31 30 28 25 23 22 21 21 20 20 20 20 20 20 19 18 16 15 13 13 12 12 11 11 12 13 16 24 37 49 58 63 65
70 69 68 68 68 68 69 70 70 69 69 70 71 71 71 70 70 70 70 71 72 72 72 72 73 73 72 70 68 68 68 69 69 67 63 60 58 54 48 42 38 35 34 34 34 34 33 32 30 27 24 22 21 22 22 27 33 39 41 40 37 34 30 29 28 28 27 26 25 24 24 24 24 24 23 22 20 20 19 19 19 20 21 21 20 19 17 15 14 13 12 12 12 12 12 11 13 17 24 36 50 61 64
70 70 69 68 68 68 68 69 70 70 70 71 72 72 71 70 70 70 71 72 72 72 71 72 72 73 73 72 70 69 68 70 70 69 66 63 58 51 43 39 37 36 34 34 34 34 33 32 31 28 25 23 23 23 23 26 33 39 41 41 39 36 33 29 26 24 23 22 21 20 19 20 21 21 21 20 20 19 18 19 20 20 21 22 21 20 18 17 15 14 12 12 12 12 12 10 11 14 18 25 40 55 64
70 70 69 69 68 68 68 69 70 71 72 73 73 72 71 70 70 70 71 72 72 72 71 71 72 73 73 72 70 69 69 70 70 69 68 63 55 47 40 37 37 38 37 37 37 36 34 33 32 30 27 25 25 26 27 28 32 37 41 41 39 37 35 31 28 25 24 22 20 18 17 18 18 19 19 18 18 18 18 19 20 21 22 22 21 21 19 18 17 15 13 12 12 11 11 10 10 13 16 22 32 44 58
70 70 69 69 68 68 68 68 70 72 74 74 74 72 70 70 70 70 71 72 72 72 71 72 72 73 72 71 70 69 69 69 69 66 62 56 49 43 42 36 34 35 37 38 38 37 36 35 33 32 30 27 28 29 32 32 33 35 38 38 37 36 34 33 31 29 28 26 23 21 19 18 17 17 16 16 16 16 17 18 21 22 22 22 21 21 20 19 18 16 15 14 13 12 11 10 9 10 14 21 28 38 50
70 70 69 69 69 68 68 68 70 73 75 75 74 73 71 70 69 70 71 71 71 71 71 72 72 73 73 72 70 68 67 67 66 63 57 51 44 39 37 32 30 32 40 40 42 43 39 39 37 35 32 30 30 32 35 36 36 36 36 36 35 34 33 34 33 33 32 30 28 25 23 21 19 18 16 16 16 16 16 18 20 22 23 22 21 20 19 18 17 16 16 15 15 14 13 11 10 10 10 16 25 34 42
71 71 70 69 69 69 68 68 70 73 76 76 75 74 71 70 69 70 70 70 70 70 71 72 73 73 73 72 71 68 63 63 63 62 59 51 43 37 34 38 35 33 36 37 43 47 42 41 39 37 35 32 31 33 35 37 37 36 35 34 33 32 31 32 33 34 35 33 30 29 28 26 24 22 19 18 17 17 17 18 20 21 23 23 22 21 20 18 17 16 16 16 15 15 14 13 12 11 10 12 18 26 34
73 72 71 70 70 69 69 68 70 73 77 77 76 74 72 70 70 70 70 70 70 70 71 72 72 72 72 72 72 69 63 62 61 62 63 60 52 45 42 45 45 47 53 48 40 35 40 47 46 40 36 34 32 32 34 36 36 36 35 34 32 31 30 30 32 34 35 33 31 30 31 30 28 26 24 22 20 19 19 19 20 21 23 23 23 22 21 19 18 17 17 16 16 16 15 14 13 12 11 11 12 17 25
75 74 73 72 71 70 70 70 71 74 77 77 76 74 72 71 70 70 71 71 70 70 70 72 72 71 71 71 71 70 65 64 63 63 64 66 61 54 47 52 55 56 53 46 40 35 34 45 43 37 35 35 34 33 33 34 35 35 34 33 32 31 30 30 31 32 33 32 32 33 33 32 32 31 29 26 24 23 22 22 22 22 23 23 23 23 22 21 20 19 18 18 17 17 16 15 14 13 12 11 11 13 18
77 76 75 73 72 71 71 71 72 74 77 78 76 74 72 71 70 70 71 71 71 71 70 72 72 72 70 70 70 69 67 65 65 65 64 66 65 59 41 45 48 48 44 40 38 41 54 44 41 40 36 34 34 34 33 33 33 34 34 34 33 32 31 31 31 31 31 32 33 34 34 34 33 33 31 29 28 27 26 25 25 24 24 24 23 23 22 22 21 20 19 19 18 17 16 16 15 14 13 12 11 12 15
79 78 77 75 74 73 73 73 74 75 77 78 76 74 72 71 70 70 71 72 72 71 71 71 72 72 71 70 69 68 66 65 65 64 64 64 66 64 53 39 41 47 44 50 51 52 55 42 40 40 37 37 37 36 34 34 33 33 33 33 33 32 32 32 32 32 32 32 33 34 34 34 34 33 32 31 30 29 29 29 28 28 27 25 24 24 23 23 22 22 21 20 18 18 17 16 16 15 15 13 12 12 14
80 79 79 77 75 74 74 74 75 76 77 78 76 74 72 70 70 70 71 71 71 71 71 71 71 71 71 71 69 68 66 64 63 62 62 61 62 63 61 49 40 36 39 55 57 53 51 51 46 41 39 38 38 37 37 35 35 34 34 33 33 33 33 33 33 33 33 33 33 33 34 34 34 34 33 32 31 30 30 31 31 31 30 29 27 25 24 24 23 23 22 21 19 18 17 17 17 17 16 14 14 15 18
81 81 80 78 77 75 75 75 76 76 77 77 76 74 72 70 70 70 70 71 71 70 70 70 70 71 71 71 71 70 68 65 63 61 60 59 59 59 60 56 48 40 37 39 41 43 45 48 48 45 41 34 33 34 37 37 37 36 36 35 35 34 34 33 33 33 34 34 34 34 34 35 34 34 34 33 32 31 31 31 32 32 32 32 30 29 27 26 25 24 23 22 20 19 18 18 18 18 17 16 16 19 25
82 82 81 80 78 77 76 76 76 77 77 77 76 74 72 71 70 70 70 70 69 69 69 69 69 70 71 71 71 71 70 69 65 61 59 58 58 57 57 57 53 47 41 39 38 38 37 38 43 46 42 39 35 32 32 33 35 37 37 37 37 36 36 35 35 34 34 34 34 34 35 35 35 35 34 34 33 32 32 32 33 33 34 33 33 31 30 29 28 27 25 24 22 20 19 18 19 19 19 18 18 23 34
83 82 82 81 79 78 77 77 77 77 77 77 76 74 72 71 70 70 69 69 68 68 68 68 69 69 70 71 71 71 71 71 68 64 60 58 57 56 56 55 53 50 46 42 39 36 35 33 32 33 37 46 44 37 32 31 30 31 34 35 37 38 38 38 37 36 36 35 35 35 35 35 35 35 35 35 34 34 34 34 34 34 34 35 34 33 32 31 30 29 27 25 24 22 21 20 20 21 21 20 22 27 40
Wind_Speed
14 14 14 14 14 14 13 13 13 12 12 12 11 11 10 10 10 9 9 9 9 9 9 9 9 9 9 8 8 8 7 7 7 7 6 6 7 7 9 10 10 10 10 9 9 9 11 11 9 8 8 8 8 8 9 8 8 7 7 7 8 10 12 11 10 9 9 9 9 9 9 9 9 9 9 9 9 9 9 9 9 9 9 9 9 9 10 10 10 10 11 11 11 11 10 10 11 11 11 11 11 11 12
14 13 14 14 14 14 13 13 13 12 12 11 11 11 11 10 10 10 10 9 9 9 9 9 9 8 8 8 8 7 7 7 7 7 6 6 7 7 8 9 10 10 10 10 10 11 11 11 9 8 8 8 8 8 8 8 7 7 7 7 7 9 10 11 11 10 9 9 9 9 9 9 8 8 8 8 9 9 9 9 9 9 9 9 9 9 10 11 11 11 11 11 11 10 10 11 12 13 13 13 14 14 15
13 14 14 14 14 13 13 12 12 12 11 11 11 11 11 10 10 10 10 10 10 10 9 9 9 9 8 8 8 7 7 7 7 7 6 6 7 7 8 9 10 10 10 10 11 11 11 9 8 8 8 8 8 8 8 8 8 8 8 7 7 8 9 10 10 10 9 9 8 9 9 8 8 8 8 8 8 8 8 8 9 9 9 9 9 9 9 9 10 10 10 11 10 9 10 10 11 11 12 13 13 14 14
14 14 14 13 13 13 12 12 11 11 11 11 10 10 10 10 10 10 10 10 10 10 10 9 9 9 9 9 8 8 7 7 7 6 6 7 7 7 8 9 10 10 10 10 10 10 10 8 7 8 8 8 7 8 8 8 8 9 9 9 8 8 8 9 9 9 9 9 8 8 8 8 8 8 8 8 8 8 8 8 9 9 9 9 9 9 9 9 9 9 9 10 10 10 10 9 10 10 10 11 11 12 11
13 13 13 13 12 12 12 11 11 11 11 11 10 10 10 10 10 10 10 10 10 10 9 9 9 9 9 9 8 8 7 7 6 6 6 6 7 7 7 8 9 10 10 10 10 10 9 7 7 8 8 8 7 7 7 7 8 9 10 10 10 9 9 9 9 9 9 9 8 8 8 8 8 9 8 8 8 8 8 8 9 9 9 10 9 9 10 10 10 10 10 10 10 10 10 9 10 10 10 10 11 11 11
13 13 12 12 12 12 11 11 11 11 11 10 10 10 10 9 9 10 10 10 10 10 10 9 9 8 8 8 8 8 7 7 6 6 5 6 6 7 7 8 9 9 9 10 10 10 9 7 7 7 8 8 8 7 7 7 7 9 10 10 10 10 9 9 8 8 8 8 8 8 8 8 9 9 9 8 8 8 8 9 9 9 10 10 10 10 10 10 10 10 10 10 10 10 10 10 10 10 10 10 11 11 11
13 12 12 11 11 11 11 11 11 10 10 10 10 9 9 9 9 9 9 10 10 10 10 9 9 8 8 8 8 8 7 6 6 5 5 5 6 7 7 8 8 8 9 9 9 10 10 9 7 7 7 8 7 7 6 6 6 7 8 10 10 9 9 9 8 8 8 8 8 8 8 8 9 9 9 9 8 9 9 9 10 10 10 10 10 10 10 11 11 10 11 11 11 11 11 11 11 10 10 11 11 11 11
12 12 12 12 12 11 11 11 10 10 9 9 9 9 9 9 9 8 8 8 9 9 9 9 8 8 8 8 8 7 7 6 6 5 5 5 6 7 7 8 8 8 8 8 9 10 11 9 7 6 7 7 7 7 6 6 5 5 7 9 9 9 8 8 8 8 8 7 7 8 8 8 8 8 9 9 9 9 10 10 10 10 10 10 11 11 11 11 11 11 11 11 11 11 11 11 11 11 11 12 11 11 11
13 12 12 11 11 11 11 11 10 9 9 9 9 9 9 9 9 8 8 8 8 8 8 8 8 8 8 8 8 7 7 6 6 5 5 5 6 7 8 9 9 9 9 9 10 10 11 10 8 6 6 5 6 6 6 6 5 5 6 8 9 8 8 8 8 8 8 8 8 8 8 8 8 8 8 8 9 9 10 10 10 10 10 10 11 11 10 10 11 11 11 11 11 11 11 11 11 11 11 12 12 11 12
13 12 12 11 10 10 11 11 10 10 9 9 9 9 9 9 8 8 8 8 8 8 8 8 8 8 8 8 7 6 6 5 5 4 4 5 6 8 9 9 10 10 10 10 10 10 10 9 7 6 5 4 4 5 6 5 5 5 6 8 9 8 8 8 8 8 8 8 8 8 8 7 7 7 7 8 9 9 10 10 10 10 10 10 10 10 10 9 9 10 10 11 11 11 11 11 11 11 11 11 12 11 11
13 12 11 10 10 10 10 11 10 9 9 8 8 9 8 8 8 8 8 8 7 7 7 7 7 7 7 6 5 5 4 3 3 3 3 4 6 8 9 9 10 10 10 10 10 10 10 9 7 5 4 3 3 5 5 4 4 5 6 8 9 8 8 8 8 8 8 8 8 8 7 7 7 7 7 8 9 9 10 9 9 10 10 10 10 10 9 9 9 9 10 10 10 11 11 11 11 11 11 11 11 11 11
13 12 11 10 9 9 10 11 10 9 8 8 8 8 8 8 8 8 7 7 7 7 7 6 6 5 5 4 3 2 1 1 1 2 3 5 7 8 9 9 9 9 9 10 10 10 9 8 6 5 4 3 3 4 4 3 3 4 6 8 8 8 8 8 8 8 7 8 8 8 7 7 6 7 8 8 9 9 9 9 9 10 9 9 9 9 9 9 9 9 9 9 10 10 10 10 10 10 10 11 11 11 10
12 12 11 10 9 9 9 10 11 10 8 8 8 8 8 8 8 7 7 7 7 6 6 5 5 4 4 3 2 1 1 2 3 4 5 6 7 8 8 8 8 8 9 9 9 9 8 6 5 4 5 5 4 4 3 2 3 4 6 7 8 8 8 8 8 7 7 7 8 8 7 7 6 7 8 8 9 9 9 9 9 9 9 9 9 9 9 9 9 9 9 9 9 10 10 10 10 9 10 10 10 10 10
12 11 11 10 9 9 8 10 12 12 9 8 8 8 8 8 7 7 6 6 6 6 5 5 4 3 3 2 1 2 3 4 4 5 6 6 7 7 7 7 7 8 9 9 9 8 7 5 4 4 4 4 4 4 2 1 2 3 6 6 7 7 8 8 8 7 7 7 7 7 7 7 7 8 8 8 8 9 9 9 9 9 9 9 9 9 9 9 9 9 9 9 9 9 9 9 9 9 9 9 9 10 10
11 11 11 10 10 9 8 9 12 12 9 9 8 8 8 7 7 6 6 5 5 5 4 4 3 3 1 1 2 3 4 5 5 5 5 6 6 6 7 6 7 7 8 8 8 7 5 4 4 4 3 3 3 3 1 1 1 2 4 5 6 7 7 8 7 7 6 6 7 7 8 8 8 8 8 8 8 9 9 9 9 9 9 9 9 9 9 9 9 8 8 9 9 9 9 9 9 9 9 9 9 9 10
11 11 11 11 11 9 8 9 11 11 9 8 8 8 7 7 6 6 5 5 5 5 4 3 2 1 1 2 2 3 3 4 4 5 5 5 6 6 6 6 6 7 8 8 7 6 4 4 4 4 3 2 2 1 0 1 1 2 4 5 6 6 7 7 7 6 6 6 7 7 8 8 9 8 8 8 8 8 8 8 8 9 9 9 9 9 9 9 9 8 8 8 8 8 9 9 9 9 9 9 9 9 9
12 12 12 12 12 10 9 8 9 10 9 8 8 8 8 7 6 6 6 6 5 4 3 1 1 1 2 2 2 2 2 3 3 4 4 5 5 6 6 6 7 7 7 7 6 5 4 4 4 3 3 2 1 0 1 2 1 1 4 4 5 5 6 6 6 6 6 6 6 7 8 8 8 8 8 8 8 8 8 8 8 8 8 8 8 9 9 8 8 8 8 8 8 8 8 9 9 9 9 9 9 9 9
13 13 13 13 13 12 10 9 9 9 10 9 9 9 8 7 7 7 7 6 5 4 1 2 3 4 4 3 2 2 2 2 2 2 3 4 5 5 5 6 6 7 7 6 4 3 3 3 3 3 3 2 1 1 2 3 2 1 3 3 4 5 5 5 5 5 5 5 5 6 7 7 7 7 8 7 7 7 7 7 7 7 7 8 8 8 8 8 8 8 8 8 8 8 8 8 8 9 9 9 9 9 9
14 14 13 13 13 13 11 10 10 10 10 10 9 9 7 7 7 7 6 5 4 3 2 3 4 5 5 3 2 0 2 3 2 0 2 3 4 5 5 6 6 6 6 4 3 2 2 2 2 3 3 2 1 2 2 3 2 1 3 3 4 4 4 5 5 4 4 4 5 5 5 6 6 6 7 7 6 6 7 7 7 7 7 7 7 7 8 8 8 8 8 8 8 8 8 8 8 8 8 9 9 9 9
14 14 13 13 13 13 12 11 10 9 9 9 9 8 6 5 5 5 4 3 3 3 2 2 3 4 4 3 2 2 0 3 3 1 2 2 3 4 5 5 5 4 3 3 3 3 3 1 1 2 3 2 1 2 2 2 1 1 3 2 3 4 4 4 4 4 4 4 4 5 5 5 5 5 5 6 6 6 6 6 6 6 7 7 7 7 7 7 8 8 8 8 8 8 8 8 8 8 8 8 8 8 8
14 14 13 13 13 13 13 11 9 8 8 9 9 8 6 5 4 3 3 3 2 2 2 2 2 3 2 2 2 2 1 2 2 1 2 2 2 3 4 4 3 2 2 3 3 4 4 1 1 3 2 2 0 1 1 2 2 0 2 2 3 3 3 4 4 3 4 4 4 4 4 4 4 4 4 5 5 6 6 6 6 6 6 6 6 6 6 7 7 7 7 8 8 8 8 8 7 7 7 7 7 8 8
13 13 13 13 13 13 13 11 9 7 7 8 8 8 7 5 4 3 2 3 2 2 2 2 2 1 1 2 2 1 1 2 2 1 1 0 1 2 3 2 1 1 2 3 3 4 4 1 2 3 2 1 0 1 2 2 3 2 1 2 2 3 3 3 3 3 3 4 4 4 4 4 3 4 4 4 4 5 5 5 5 5 5 5 5 5 6 6 6 6 7 7 7 7 7 7 7 7 7 7 7 7 7
12 12 12 12 12 12 12 11 9 7 6 7 8 9 8 6 5 3 2 2 3 2 2 2 2 1 1 1 1 0 2 2 2 1 1 1 0 1 1 1 1 2 2 3 3 3 3 2 2 3 2 1 1 2 3 3 4 3 2 2 3 3 3 3 3 3 3 3 4 4 3 3 3 4 3 3 4 4 4 4 4 5 5 5 5 5 5 6 6 6 6 6 6 6 7 7 7 7 6 6 6 7 7
11 11 11 11 11 12 12 11 9 7 6 6 7 9 9 8 7 4 2 2 3 3 2 2 2 2 1 0 0 1 2 2 2 2 1 1 1 1 1 2 2 2 3 3 3 3 3 2 2 3 2 1 1 3 4 4 4 4 3 3 3 3 2 2 2 2 2 2 3 3 3 3 3 3 3 3 3 3 3 4 4 4 5 5 5 5 5 5 6 6 6 6 6 6 6 6 6 6 6 6 6 6 6
12 11 11 11 11 11 11 11 11 9 7 5 5 7 9 9 8 6 3 3 3 4 3 2 2 2 1 1 1 1 1 2 1 1 1 1 1 1 1 2 2 3 3 3 3 3 2 2 2 2 2 1 1 3 5 5 5 4 3 3 5 5 3 2 2 2 2 2 2 3 3 3 3 3 3 3 3 3 3 3 4 4 4 4 5 5 5 5 5 5 5 6 6 5 5 5 6 6 6 6 6 6 6
13 12 12 12 11 10 11 12 12 11 9 6 4 5 7 8 8 6 4 3 3 4 3 2 2 2 2 2 2 1 1 2 1 1 1 1 1 1 1 1 2 3 3 3 4 3 2 1 1 1 1 1 2 3 5 5 5 5 4 3 5 6 5 4 3 2 2 2 3 3 3 3 3 3 3 3 3 3 3 3 3 4 4 4 4 5 5 5 5 5 5 5 5 5 5 5 5 5 5 5 5 5 5
13 13 13 13 12 11 11 11 12 12 11 7 5 5 5 6 7 6 5 4 4 3 3 3 3 3 3 3 2 1 1 1 2 1 1 2 1 1 0 1 2 2 3 3 4 3 2 0 1 1 1 1 2 4 5 5 5 5 3 3 6 8 7 6 5 4 2 3 3 3 3 3 3 3 3 3 3 3 3 3 3 4 4 4 4 4 4 4 5 5 5 5 5 5 5 5 5 5 5 5 5 5 5
13 12 13 13 13 12 11 11 11 12 11 8 7 6 6 6 7 7 6 5 4 4 3 3 3 3 4 3 3 2 1 1 2 2 1 2 2 2 1 1 2 2 3 3 3 2 2 1 0 1 1 1 2 4 5 6 6 5 3 3 6 8 8 7 6 5 3 3 4 4 3 3 3 3 3 4 4 4 4 4 3 3 3 3 4 4 4 4 4 4 5 5 5 5 5 5 4 4 4 4 4 4 4
13 12 12 13 13 13 12 12 11 11 10 9 8 8 8 7 6 7 7 6 5 4 4 3 4 4 4 4 3 2 2 2 2 2 1 2 2 2 1 1 2 2 2 2 1 1 1 1 1 1 1 1 2 3 5 6 6 4 2 4 7 9 9 8 7 5 4 4 4 4 4 3 3 3 3 3 3 3 3 3 3 3 3 3 3 3 4 4 4 4 4 4 4 4 4 4 4 4 4 4 4 4 4
13 12 12 12 13 13 13 12 12 11 10 10 9 9 8 6 6 6 7 6 5 4 4 4 4 4 4 3 3 3 3 3 3 2 1 2 2 2 2 2 2 2 2 2 2 3 3 3 2 3 3 2 2 2 5 6 5 3 1 5 8 10 10 9 8 6 5 4 5 4 4 4 3 3 3 3 3 3 3 3 3 3 3 3 3 3 3 3 3 3 4 4 4 4 4 3 3 3 3 3 3 3 3
14 13 12 12 13 13 13 13 12 11 11 10 9 9 8 7 6 6 7 6 6 5 4 4 4 4 4 3 3 4 4 4 3 2 1 2 2 2 2 2 2 2 3 3 4 5 5 4 4 4 4 3 2 2 4 5 5 3 1 5 8 11 11 10 9 7 5 4 4 4 4 4 3 3 3 3 3 3 3 2 2 2 2 2 2 2 3 3 3 3 3 3 3 3 3 3 3 3 3 3 2 2 2
14 14 13 12 13 13 13 13 12 12 11 11 10 9 8 7 7 7 7 6 6 5 4 3 2 3 3 3 4 5 4 4 3 2 2 2 3 3 3 3 3 3 4 4 5 4 4 4 3 4 3 3 2 2 3 5 5 3 1 4 8 10 11 11 9 8 7 5 4 4 4 4 4 3 3 3 3 3 2 2 2 2 2 2 2 2 2 2 2 2 3 3 3 3 3 2 2 2 3 3 2 2 2
15 14 14 13 13 13 13 13 13 12 12 11 10 9 9 9 9 8 8 7 6 5 4 3 2 2 2 3 4 5 4 3 2 2 2 3 3 3 3 3 3 4 4 4 4 3 3 3 2 2 3 2 2 2 4 5 5 4 2 3 7 10 11 11 10 9 8 6 5 4 4 4 4 4 3 3 3 3 2 2 2 2 2 1 1 1 1 2 2 2 2 2 2 2 2 2 2 2 3 3 3 2 2
15 15 14 14 13 13 13 13 13 13 13 12 11 10 10 9 9 9 8 7 6 6 5 4 3 2 2 2 3 4 4 3 3 2 2 3 3 4 4 4 4 4 5 4 3 3 3 4 3 2 3 3 3 3 4 5 5 5 4 3 5 8 10 11 11 10 9 8 7 5 5 4 4 4 4 4 3 3 2 2 1 1 1 1 1 1 1 1 1 2 2 2 2 2 2 2 2 2 2 3 3 2 2
16 15 15 14 14 13 14 13 13 13 13 12 12 11 10 9 9 8 8 7 6 6 6 5 4 3 3 3 3 3 3 3 3 2 2 3 3 4 4 4 4 5 5 4 3 3 4 5 4 4 3 4 4 4 5 5 6 6 6 5 4 6 9 11 12 11 10 9 8 7 6 5 5 5 4 4 4 4 3 3 2 1 1 0 0 0 1 1 1 1 1 2 2 2 2 2 2 2 2 3 3 3 2
16 16 15 15 14 14 14 14 13 13 13 12 12 11 11 10 9 8 8 8 7 7 6 5 5 4 4 3 3 3 3 3 3 3 3 3 3 4 5 5 5 5 5 5 4 4 5 6 5 4 3 4 4 5 5 6 7 7 7 6 5 5 7 9 11 12 12 11 10 9 8 7 7 6 6 6 5 5 5 4 4 3 2 2 2 2 1 1 2 2 2 2 2 2 2 2 2 2 3 3 3 3 3
16 16 15 15 15 15 14 14 13 13 13 13 12 12 11 10 9 9 9 9 8 7 6 6 6 5 5 4 4 4 4 4 4 4 4 3 4 5 6 6 5 6 6 5 5 5 6 5 5 4 4 4 5 6 6 7 8 8 8 8 6 5 6 7 9 11 12 12 12 11 10 9 8 8 7 7 7 7 6 6 6 5 5 4 4 3 3 3 3 3 3 3 3 3 3 3 3 3 3 3 4 4 4
17 16 16 15 15 15 15 14 14 13 13 13 13 13 12 11 10 10 10 9 8 8 7 7 7 6 6 5 5 5 5 5 5 4 4 3 4 5 5 5 6 6 6 6 6 6 5 4 3 3 4 5 6 6 7 8 9 9 9 9 8 6 6 6 8 10 11 12 12 12 11 11 10 10 9 9 8 8 8 8 7 7 7 7 6 6 5 4 4 4 4 4 4 4 4 4 4 4 4 4 4 5 5
18 17 16 16 15 15 15 15 14 14 13 13 13 13 13 12 11 10 10 9 8 8 8 8 8 7 6 6 6 6 6 6 5 5 4 4 5 5 5 5 6 6 6 6 6 6 5 3 3 3 5 6 6 7 7 8 9 9 9 9 9 8 6 6 7 8 10 11 11 11 12 12 12 11 11 10 10 9 9 9 9 9 8 8 8 8 7 6 6 6 5 5 5 5 5 5 5 5 5 5 5 5 5
18 17 17 16 16 15 15 15 15 14 14 14 13 13 13 12 12 11 10 10 9 8 8 9 8 8 7 7 7 6 6 6 6 6 5 5 5 5 5 6 6 7 7 7 7 6 5 3 3 4 5 6 7 7 8 9 9 9 9 9 9 8 7 7 7 7 8 9 10 10 11 11 12 12 11 11 10 10 10 9 9 9 9 9 9 9 9 8 8 7 7 7 7 7 6 6 6 6 6 6 6 6 6
19 18 17 16 16 16 15 15 15 15 15 14 14 13 13 13 12 12 11 10 9 9 9 9 8 8 7 7 7 7 7 7 7 6 6 6 6 6 6 6 7 7 8 8 7 6 5 3 3 4 6 7 7 8 9 9 9 9 9 9 9 9 9 8 8 8 8 8 9 9 10 10 11 11 11 11 10 10 10 9 9 9 9 9 9 9 10 10 9 9 9 8 8 8 8 7 7 7 7 7 7 7 7
19 18 17 17 16 16 16 15 15 15 15 15 14 14 13 13 13 12 11 10 10 10 10 10 9 8 7 6 6 6 6 6 7 7 7 6 6 6 7 7 8 8 8 8 8 7 5 4 4 5 6 7 8 9 10 10 10 9 10 10 10 10 10 9 9 9 9 9 9 9 9 10 10 10 10 10 10 10 10 10 10 10 10 10 10 10 10 10 10 10 10 10 9 9 9 9 8 8 8 8 8 8 8
19 18 17 17 16 16 16 16 16 16 16 15 15 14 14 14 13 12 11 10 10 10 11 11 10 9 7 6 5 5 6 6 6 7 7 6 6 6 7 8 8 8 9 9 8 7 6 5 5 6 7 8 9 9 10 11 11 11 11 11 11 11 11 11 11 10 10 11 11 11 10 10 10 10 10 11 11 11 11 11 11 11 11 11 11 11 11 11 11 11 11 11 11 11 10 10 10 9 9 9 9 9 9
19 18 18 17 16 16 16 16 16 16 16 16 16 15 14 14 13 12 12 11 10 10 11 11 11 10 9 7 6 5 5 5 6 6 6 5 5 6 6 7 8 8 9 9 9 8 7 7 7 7 8 9 10 10 10 11 11 12 12 12 13 12 12 13 13 12 12 12 13 13 12 12 11 11 11 11 12 12 12 12 12 12 12 12 12 12 11 12 12 12 12 12 12 12 11 11 11 10 10 10 10 10 10
20 19 18 17 16 16 16 16 16 17 17 17 16 15 15 14 14 13 12 12 10 9 9 10 10 10 9 8 7 6 5 5 5 4 4 4 5 5 6 7 8 9 9 9 10 9 9 8 8 9 9 10 10 11 11 11 11 12 12 13 14 14 14 14 15 15 14 14 14 15 15 14 14 13 13 13 13 13 13 13 13 13 13 13 13 13 12 12 12 12 12 12 12 12 12 12 12 12 11 11 11 11 11
20 19 18 18 17 17 17 17 17 17 17 17 16 16 15 14 14 13 13 13 12 10 9 9 8 9 9 9 8 7 6 5 5 4 4 4 5 6 7 9 10 10 10 11 11 10 10 10 10 10 10 10 11 11 11 11 11 12 13 14 15 15 15 16 17 17 17 16 16 17 17 17 16 15 15 14 14 14 14 14 14 14 14 14 14 13 13 13 13 13 13 13 13 13 13 13 13 13 12 12 12 12 12
21 20 19 19 18 17 17 17 17 17 17 17 17 16 15 15 14 14 14 14 13 12 10 9 8 8 8 9 9 9 8 7 6 6 5 5 6 8 9 11 11 11 11 11 12 12 12 12 12 11 11 11 11 11 11 11 12 12 13 15 15 16 16 17 18 18 18 18 18 18 18 18 18 17 17 16 16 15 15 15 15 15 15 15 14 14 14 14 14 14 14 14 14 14 14 14 14 13 13 13 13 13 12
21 20 19 19 18 18 17 17 18 18 18 18 17 17 16 15 15 15 15 14 14 14 13 10 9 8 8 9 9 10 10 9 9 8 7 7 8 9 10 12 12 11 11 12 13 13 13 13 13 13 12 12 11 11 12 12 12 13 15 15 16 16 17 18 18 18 18 18 18 18 19 19 19 19 18 18 17 17 16 16 16 16 15 15 15 15 15 15 15 15 15 15 15 15 14 14 14 14 14 14 14 13 13
21 20 19 19 18 18 18 18 18 19 19 19 18 18 16 15 15 15 15 14 14 14 13 12 10 9 8 8 9 9 10 10 10 9 8 7 7 9 10 12 13 13 12 12 12 13 13 14 14 14 13 13 12 12 12 13 14 15 16 16 17 17 17 18 18 18 18 18 18 18 19 19 19 19 19 19 18 18 18 18 18 18 17 16 16 16 16 16 16 16 16 16 16 16 15 15 15 15 15 15 15 14 14
21 20 20 19 19 19 18 18 19 19 20 19 19 18 17 15 15 15 14 14 13 13 12 12 11 10 9 8 8 9 10 10 10 9 8 6 5 5 6 7 9 11 12 12 12 13 13 14 15 15 15 14 13 13 13 14 15 16 17 17 18 18 18 18 18 18 17 18 18 19 19 19 20 20 20 19 19 19 19 19 19 19 19 19 18 18 17 17 17 17 17 17 17 17 16 16 16 16 16 16 15 15 15
22 21 20 20 19 19 19 19 19 20 20 20 19 18 17 16 15 15 15 14 13 13 12 12 12 11 10 9 8 8 10 11 11 9 5 4 5 4 2 3 3 5 9 11 12 13 13 14 15 16 15 15 14 14 14 15 16 17 18 18 18 18 18 19 19 18 18 18 18 19 19 20 20 20 20 20 19 19 20 20 20 21 21 21 21 20 20 19 19 18 18 18 18 18 17 17 17 17 17 16 16 16 16
22 21 21 20 20 19 19 19 19 20 20 20 19 18 17 16 16 16 15 15 14 14 13 13 12 11 11 10 8 8 10 11 11 10 7 5 4 4 3 3 2 2 2 3 6 9 12 14 16 16 16 16 15 15 15 16 17 18 19 19 19 19 19 19 19 19 19 19 20 20 20 21 21 21 21 20 20 20 20 21 21 22 23 23 23 22 22 21 20 20 19 19 19 18 18 18 17 17 17 17 17 17 16
22 22 21 20 20 19 19 19 19 20 20 20 19 19 18 17 17 16 16 15 15 14 14 14 13 11 11 11 9 8 9 10 10 10 8 6 5 3 2 1 1 1 1 1 2 3 6 11 15 16 16 16 16 16 16 16 18 19 19 20 20 20 20 19 19 19 19 21 22 22 22 22 22 22 22 22 21 21 22 22 22 23 24 24 24 24 24 23 22 22 21 20 19 19 18 18 18 18 18 18 18 18 17
22 22 21 21 20 19 19 19 19 19 20 20 19 19 18 18 18 17 17 16 15 15 15 14 13 12 11 11 10 9 9 10 10 10 9 8 6 3 0 1 1 2 2 2 1 2 3 5 9 12 12 13 15 16 17 17 18 19 20 21 21 21 21 20 20 20 21 22 23 24 24 24 24 24 23 23 23 23 23 23 24 24 24 25 25 25 25 24 23 23 22 22 21 20 19 19 19 18 18 19 19 19 18
22 22 21 21 20 19 19 19 19 19 19 19 19 19 19 19 18 18 17 17 16 15 15 15 14 13 12 11 11 11 10 10 11 11 11 11 10 6 3 2 0 2 3 2 1 1 2 3 4 5 8 9 12 15 17 18 19 20 20 21 21 21 21 22 22 22 22 24 24 25 25 26 25 25 25 25 25 25 25 25 25 25 25 25 25 25 25 25 24 24 24 23 22 22 21 20 20 19 19 19 19 19 18
22 22 22 21 20 20 19 19 19 19 19 19 19 19 19 19 18 18 17 17 17 16 16 16 15 14 13 12 11 11 11 11 11 12 12 12 12 11 8 3 1 1 1 1 1 3 3 3 4 2 2 6 10 14 16 17 18 19 20 20 21 21 22 22 23 23 24 24 25 26 26 27 27 27 27 27 27 27 26 26 26 26 26 26 26 26 26 25 25 25 25 24 24 23 22 21 21 20 20 19 19 19 18
22 22 22 21 21 20 20 20 20 19 19 19 19 19 18 18 18 18 17 17 17 16 16 16 16 15 14 12 11 11 11 12 12 12 12 12 12 12 12 9 6 4 3 2 2 2 2 4 3 1 1 3 7 11 14 15 16 18 19 20 21 21 22 22 23 24 24 25 26 27 27 28 28 28 28 28 28 28 28 27 27 27 27 27 27 27 27 27 26 26 26 25 25 24 23 23 22 21 20 20 19 19 18
22 22 22 22 21 20 20 20 20 20 20 20 19 19 18 18 17 18 17 17 17 17 17 16 16 16 15 14 12 11 11 11 11 12 11 11 12 13 14 14 13 11 7 5 2 1 2 3 2 0 2 3 4 7 9 12 14 16 17 18 19 20 21 22 23 24 25 26 27 28 28 28 28 28 28 29 29 29 29 28 28 27 27 27 28 28 28 28 28 27 27 27 26 25 25 24 23 22 21 20 19 19 18
23 23 23 22 22 21 20 20 20 20 20 20 19 19 18 18 18 18 18 17 17 16 16 17 16 16 16 15 14 13 12 10 11 11 11 10 11 12 13 14 15 14 14 12 9 6 2 0 1 1 1 2 3 4 7 10 13 15 16 17 18 19 20 22 23 24 25 26 27 28 28 29 29 29 29 29 30 30 30 29 29 28 28 28 28 28 28 29 29 29 28 28 27 27 26 25 24 23 22 21 20 19 19
23 23 23 23 22 22 21 21 20 20 20 20 20 19 19 18 18 18 17 17 16 16 16 16 16 16 15 15 15 14 13 11 10 10 10 7 7 9 11 12 13 15 15 15 14 12 9 6 4 2 1 1 2 4 5 7 10 12 14 16 17 18 20 22 23 24 25 26 27 28 29 29 29 29 29 29 30 30 30 30 30 29 28 28 28 28 28 29 29 29 29 29 29 28 27 26 25 24 23 21 21 20 19
24 23 23 23 23 22 22 21 21 20 20 20 20 20 19 19 18 17 17 17 16 15 16 16 16 16 15 15 15 15 14 12 11 9 9 7 5 6 8 9 11 12 14 15 15 14 12 12 11 9 5 2 1 2 3 6 8 11 13 15 16 18 20 22 23 24 25 26 27 27 28 29 29 29 29 30 30 30 30 30 30 29 28 28 27 27 28 28 29 29 30 30 30 29 29 27 26 25 24 22 21 20 20
Wind_Direction
117 118 117 116 115 114 113 112 110 108 106 105 105 104 102 101 100 99 99 99 100 101 101 101 99 98 95 94 92 90 87 84 78 72 65 60 62 70 79 87 96 103 107 103 91 76 64 56 55 60 65 67 68 67 63 57 55 55 57 62 69 69 60 53 51 53 53 52 51 51 50 49 48 49 50 51 50 49 49 46 46 48 51 52 50 47 48 49 49 49 48 46 45 43 41 39 40 41 40 46 50 52 54
120 120 119 118 116 115 115 113 111 108 107 107 107 104 102 100 98 97 97 98 98 99 100 101 101 100 99 97 94 91 87 83 78 71 65 59 60 67 77 85 93 99 100 93 81 70 61 57 60 66 69 72 73 71 67 62 59 57 58 62 71 71 60 50 49 52 53 51 51 50 49 48 47 47 47 48 48 48 48 45 44 47 52 53 51 48 46 45 45 45 45 44 44 44 41 40 39 37 35 39 43 47 51
123 122 122 121 119 117 116 114 111 109 108 108 107 104 101 99 97 97 97 98 99 99 99 98 99 99 100 98 96 93 88 83 78 72 65 59 58 64 76 85 93 97 95 87 77 66 57 57 64 72 73 74 75 74 70 65 62 61 61 64 71 69 59 50 47 48 50 50 50 49 48 48 47 47 46 47 47 48 48 47 46 47 51 53 52 50 47 45 44 43 44 43 44 44 43 42 43 41 38 39 40 43 45
125 124 124 123 121 118 116 115 114 112 110 109 109 107 103 101 99 99 99 99 99 97 97 96 97 98 98 98 98 94 89 83 77 70 64 58 55 61 74 86 95 97 93 84 76 67 59 59 68 76 76 76 75 73 70 66 64 62 62 63 66 64 56 48 45 45 46 48 48 48 48 48 48 47 47 48 49 51 50 51 52 53 52 53 53 51 49 48 45 45 45 45 44 44 44 45 45 44 43 42 42 42 42
127 125 124 123 121 120 119 119 117 115 112 111 111 109 105 104 103 102 102 99 97 97 96 96 97 97 97 97 97 94 91 85 76 68 63 55 51 56 71 86 95 97 93 86 80 74 67 67 73 78 78 78 76 73 70 66 63 62 61 61 61 60 54 48 45 43 43 45 46 48 49 50 50 50 50 51 53 55 55 56 57 58 56 55 54 52 50 49 48 47 48 48 46 46 46 47 45 44 44 43 42 41 41
129 127 125 124 123 123 123 121 118 116 114 112 110 108 107 107 107 107 104 101 98 97 96 97 98 97 97 97 97 96 93 88 81 72 61 50 47 52 67 82 93 98 96 91 86 80 74 70 73 77 77 78 76 73 67 65 64 62 61 60 59 57 53 49 46 43 42 44 46 49 51 53 54 52 52 54 57 59 59 60 62 61 59 57 56 54 53 52 52 51 50 50 49 49 48 48 47 46 45 44 43 43 43
132 130 128 127 127 127 126 124 121 119 116 113 112 111 111 111 112 111 108 106 102 99 97 98 98 98 97 97 96 95 93 91 84 71 57 44 43 52 66 77 88 96 99 95 89 84 78 68 68 75 76 75 75 72 66 63 63 64 63 61 58 55 53 50 47 44 43 45 48 51 54 55 56 55 56 57 60 62 63 64 64 62 60 59 57 57 55 54 54 53 52 52 52 51 51 50 49 48 47 45 45 45 44
134 132 131 131 130 130 129 127 124 121 118 115 114 115 115 115 116 115 114 112 108 103 101 99 99 98 97 96 93 90 88 85 78 66 51 41 44 55 68 75 82 89 95 95 90 83 77 67 63 68 75 74 73 71 66 60 59 64 67 63 58 53 52 50 47 45 44 47 51 54 57 57 58 59 60 61 63 65 67 66 65 63 61 59 57 56 55 54 54 53 52 53 52 52 52 51 50 49 48 47 46 46 45
136 134 133 133 133 133 132 130 127 123 119 118 117 118 118 117 117 117 116 114 113 109 105 102 100 99 99 96 92 89 85 82 76 66 49 41 48 62 72 76 81 86 90 91 88 82 75 67 59 57 69 72 72 70 64 57 55 64 71 65 57 51 52 49 47 46 45 50 54 57 58 59 61 63 65 65 66 67 68 66 64 61 60 58 56 54 52 52 51 51 52 52 52 52 52 50 50 49 49 48 46 46 45
137 136 135 134 135 137 137 132 128 125 122 120 120 121 120 120 118 118 117 117 116 115 113 109 105 104 104 101 99 97 95 91 84 73 56 47 57 68 75 78 82 86 88 87 83 78 73 66 56 49 57 69 79 75 64 54 54 66 76 65 55 48 51 51 49 47 48 52 56 58 59 60 62 65 68 68 69 69 68 66 62 59 57 55 54 53 52 51 51 51 51 51 51 51 51 50 49 49 49 48 47 46 45
140 139 138 135 135 138 140 135 131 127 125 123 123 122 122 122 121 120 119 118 118 118 119 116 116 114 112 118 120 118 116 108 92 76 66 60 67 73 76 79 82 86 86 82 77 72 67 62 54 44 41 57 87 86 67 54 54 70 79 65 52 47 51 51 50 49 50 54 58 59 59 58 61 66 71 71 71 70 67 63 60 58 55 53 53 52 52 52 52 52 51 50 49 50 49 49 48 48 48 47 46 45 44
144 144 142 138 135 136 139 136 133 130 128 127 127 126 125 124 123 122 121 120 120 120 121 121 124 127 129 145 151 145 126 94 65 66 76 76 76 75 74 76 80 82 81 77 70 65 59 56 49 37 28 32 74 92 72 54 58 77 83 65 51 46 50 52 52 51 53 56 59 60 59 56 61 70 76 74 72 69 66 61 58 57 54 54 54 54 53 53 52 52 52 50 49 49 48 48 47 46 46 45 44 43 43
150 149 147 142 138 137 139 138 135 133 132 132 132 131 128 127 126 125 123 123 123 124 125 127 133 142 157 169 169 129 62 50 53 66 77 79 76 72 70 72 75 76 74 70 64 58 51 47 42 33 26 29 57 82 69 51 62 82 83 64 50 46 48 52 53 53 55 58 60 61 58 55 62 73 79 77 72 68 65 61 58 57 57 57 56 55 54 53 52 52 50 49 49 48 47 46 46 45 44 43 42 41 40
155 152 149 146 141 139 143 141 139 136 134 135 136 133 131 130 130 128 127 128 129 130 133 144 160 172 177 163 123 88 75 70 70 72 74 72 67 62 60 66 71 72 69 64 58 51 44 35 29 29 30 33 53 71 61 34 57 85 85 63 50 46 48 52 54 55 57 58 59 60 59 57 65 74 79 76 72 68 64 62 60 59 59 58 57 56 54 53 53 52 51 50 49 48 47 46 45 44 43 42 40 39 39
156 153 152 150 145 142 144 145 142 137 134 136 136 134 132 132 132 132 133 134 136 142 152 171 191 204 186 130 106 97 91 84 78 71 65 57 51 48 49 58 68 70 66 59 52 45 35 20 16 25 35 36 51 69 72 10 37 92 92 67 51 46 47 52 55 57 60 59 58 59 59 61 67 73 76 75 72 68 64 61 61 60 60 59 57 55 53 52 51 51 51 50 50 49 48 47 45 45 43 41 40 39 38
156 156 157 157 152 145 141 143 141 138 135 137 137 135 133 134 134 134 136 138 144 155 173 191 212 223 155 127 121 116 109 100 86 71 55 45 38 37 42 53 62 66 62 54 46 38 24 12 11 22 40 39 46 66 65 334 350 105 105 74 55 46 45 49 54 58 61 60 59 60 63 63 66 69 71 71 70 67 64 61 61 61 60 58 55 53 51 50 50 50 50 49 49 48 47 46 45 45 44 43 41 40 39
161 162 163 164 159 151 143 142 140 139 140 144 144 141 138 136 135 134 137 142 153 166 179 170 63 74 103 124 135 143 141 126 100 73 50 36 31 33 42 52 57 57 54 48 39 28 17 13 13 21 42 41 35 5 322 323 329 119 119 82 59 48 45 48 53 59 63 62 62 63 64 64 64 64 65 66 67 66 65 63 62 60 58 57 54 51 50 50 51 51 50 49 48 47 46 44 44 44 44 43 42 41 40
168 170 170 170 167 160 151 147 145 146 150 155 156 154 150 148 146 146 149 152 159 164 139 62 64 80 96 112 134 170 187 180 143 74 40 27 25 33 47 54 52 47 42 39 28 12 16 20 23 30 41 36 356 308 309 324 330 128 129 85 60 49 46 47 52 59 64 66 66 65 64 63 61 59 60 62 65 67 68 66 63 59 56 54 52 49 48 50 51 51 50 48 47 45 44 43 43 43 43 43 42 41 41
175 177 177 177 174 169 163 160 160 161 161 164 168 169 166 163 162 162 161 154 146 130 89 69 78 88 94 92 89 164 212 211 208 199 13 8 18 35 51 53 46 37 31 23 6 351 360 19 43 52 49 32 337 305 304 326 334 140 137 92 62 52 49 48 53 60 67 70 69 66 63 60 59 58 59 61 66 70 70 68 64 59 55 52 50 49 49 50 51 51 49 47 45 44 42 42 42 42 42 42 42 41 41
180 182 184 184 182 179 176 175 176 177 176 178 180 182 180 173 169 169 168 150 126 106 87 86 95 97 90 76 54 33 56 206 211 239 326 343 11 40 53 52 42 28 14 355 343 339 332 328 83 81 61 46 347 305 304 332 347 145 145 102 69 56 51 50 55 62 70 74 71 67 62 59 59 61 63 64 69 72 72 68 62 57 53 51 50 50 50 51 51 49 47 45 43 43 42 41 40 41 41 41 41 40 40
182 184 187 189 190 189 188 189 190 192 191 191 191 190 189 181 171 168 171 158 135 110 95 99 105 102 78 50 28 28 56 174 197 235 301 323 12 47 56 54 45 19 355 342 338 335 329 314 115 98 73 69 5 293 300 335 346 53 155 113 79 61 57 53 55 64 72 76 74 70 63 61 64 69 71 70 72 73 71 66 60 55 51 50 49 51 52 52 51 48 45 43 42 41 41 40 39 40 41 41 41 40 40
183 186 190 193 196 196 196 197 197 196 195 195 194 193 193 185 175 167 169 165 153 135 112 107 106 93 24 348 344 5 100 156 174 197 290 322 45 59 58 54 39 7 358 347 342 338 335 336 109 107 89 95 223 273 288 325 335 325 190 135 100 77 66 58 57 65 76 80 76 70 64 63 70 78 80 79 76 72 68 63 58 54 51 50 50 50 53 54 53 50 46 42 40 40 39 38 38 39 40 41 41 41 40
184 187 192 195 197 197 196 195 193 189 188 188 190 193 197 195 188 179 177 174 172 166 143 127 118 104 28 348 344 110 146 155 152 141 120 130 105 63 45 27 9 360 356 349 341 337 337 360 100 113 102 114 242 272 284 309 325 321 258 168 132 99 81 64 60 69 86 89 81 71 64 69 78 85 87 85 81 73 68 63 59 56 54 52 51 52 56 57 53 49 43 38 36 36 36 36 37 38 41 42 42 41 41
182 186 191 194 194 193 191 190 187 184 184 185 186 190 198 204 205 203 207 203 204 206 205 173 143 129 120 116 142 152 151 146 140 127 112 113 101 40 25 15 360 349 346 337 329 328 337 10 82 107 105 117 260 276 283 298 314 316 286 199 162 131 107 80 65 71 98 104 92 79 71 75 82 89 91 92 87 80 76 72 68 64 60 56 54 56 59 56 51 43 38 33 31 31 33 34 36 37 40 42 43 42 41
180 184 186 189 189 187 186 187 187 185 185 186 185 187 195 204 210 213 218 212 211 213 214 198 179 170 176 169 173 176 164 149 143 142 138 118 95 68 39 15 355 343 337 326 322 324 339 14 68 95 106 127 262 276 283 290 304 313 297 218 179 157 137 120 93 84 111 122 110 95 87 85 89 92 97 103 100 96 89 84 78 74 67 62 59 58 58 52 45 37 32 30 30 31 32 34 35 37 40 43 43 42 40
182 184 186 186 186 184 183 187 189 188 186 185 180 181 190 199 205 208 207 200 194 193 193 193 198 200 188 172 169 176 176 160 158 172 197 181 139 94 57 21 360 346 336 326 325 331 345 22 99 108 124 176 258 275 281 287 302 313 305 231 189 170 155 144 126 110 118 141 131 113 104 100 96 97 99 108 112 108 104 96 88 80 72 69 63 57 53 47 41 36 31 29 31 33 33 35 36 36 38 42 42 41 39
185 187 188 187 186 184 183 187 189 190 189 185 177 176 186 193 196 199 198 194 189 186 188 196 202 196 181 166 155 149 168 166 166 180 211 227 231 219 67 18 3 349 337 329 330 336 346 27 132 138 158 222 257 268 277 286 302 314 308 228 188 173 161 149 132 113 113 149 145 128 120 112 106 101 100 104 108 108 105 101 92 81 73 68 63 56 48 43 39 35 31 29 31 34 34 36 36 37 38 42 42 40 39
187 189 189 188 185 182 181 183 187 189 189 186 181 180 187 192 196 197 197 195 192 191 197 205 206 197 187 180 171 162 169 169 171 182 213 246 259 260 273 353 358 347 334 330 332 336 337 347 62 127 197 233 253 265 274 285 300 312 302 209 181 172 163 152 132 111 110 145 147 135 128 119 113 105 101 100 100 100 99 96 89 81 73 67 62 55 47 42 39 35 31 29 30 33 34 36 37 37 38 40 39 39 38
186 188 189 186 182 179 178 180 183 186 187 186 186 186 186 191 195 196 194 193 191 194 202 210 211 208 206 211 204 184 177 176 174 182 228 273 291 297 309 336 344 339 327 315 299 275 272 264 246 218 214 216 245 265 274 284 298 310 285 193 179 172 166 156 136 115 114 139 144 136 129 122 117 112 107 104 100 97 95 89 85 79 72 65 57 52 48 42 39 34 30 28 30 32 32 34 35 35 37 36 34 34 34
186 186 186 184 181 179 178 180 181 184 187 189 191 191 188 188 189 188 184 183 186 193 203 212 215 214 212 217 201 180 183 185 184 187 238 281 294 302 305 318 328 327 311 285 255 233 222 215 217 216 210 200 212 257 276 283 296 309 249 186 179 175 171 161 143 125 122 136 140 136 132 127 121 118 116 114 109 102 95 88 83 78 72 65 57 52 48 44 38 34 30 28 28 29 28 30 30 29 29 27 26 26 25
186 186 185 184 182 181 181 182 183 186 190 193 195 194 190 191 189 182 175 175 180 190 204 216 213 206 199 187 172 175 187 190 190 196 234 262 268 273 283 295 305 304 291 275 265 257 249 234 222 213 206 194 188 232 268 276 288 301 227 185 182 180 176 169 156 141 133 140 144 141 137 134 129 125 122 117 115 110 103 94 87 80 75 68 60 55 48 44 37 33 29 27 25 24 23 24 23 19 15 12 11 13 13
186 186 186 186 185 184 184 184 185 188 192 195 195 193 191 197 196 188 179 177 181 191 207 217 203 184 180 170 174 181 188 195 204 216 234 252 258 264 271 278 286 286 279 275 276 276 270 258 232 208 194 188 187 219 252 266 277 284 234 189 187 186 184 180 170 157 147 148 151 152 148 146 142 139 132 128 123 116 110 104 95 88 80 72 60 53 47 42 36 31 26 24 19 17 16 16 13 6 359 357 357 360 360
186 187 188 188 187 186 185 186 187 190 193 194 193 190 192 200 202 199 192 189 191 199 210 211 184 154 153 169 181 189 198 216 235 240 236 248 257 261 263 268 273 275 274 276 279 279 272 276 258 207 190 197 208 225 241 256 267 269 236 195 191 192 192 190 185 176 165 159 160 162 161 160 157 154 151 146 142 133 124 116 107 96 85 74 66 53 37 34 32 25 19 14 11 7 7 5 358 351 345 344 348 350 350
187 188 188 189 189 188 186 187 188 191 193 194 191 189 193 199 203 204 201 198 200 209 218 216 201 179 174 185 197 207 221 240 255 255 241 248 259 264 264 265 269 272 271 274 271 261 256 267 268 245 212 210 213 220 230 244 254 256 245 217 200 199 199 198 197 194 187 176 170 169 172 171 170 169 167 166 164 161 157 147 136 120 108 80 59 41 25 16 13 11 6 360 355 352 350 348 342 335 331 332 334 336 335
187 188 189 190 190 189 188 188 189 192 194 194 191 189 193 198 202 202 199 198 203 212 220 220 215 209 209 211 218 229 240 248 253 255 247 248 255 259 260 266 272 274 271 269 257 242 242 251 257 250 225 213 211 215 223 229 239 246 248 237 217 206 205 205 205 206 205 199 190 183 180 180 180 180 181 182 182 183 185 188 189 192 199 215 277 326 330 331 333 337 340 338 334 328 327 327 323 317 315 315 318 318 312
187 189 190 191 191 191 190 190 191 193 195 195 191 189 192 197 199 197 194 196 202 210 215 217 216 215 217 215 219 228 237 240 244 251 259 252 248 252 256 263 268 270 269 267 255 240 239 244 249 245 228 216 212 213 218 220 227 236 244 243 232 216 210 209 210 211 213 214 212 206 198 194 192 191 193 195 196 198 201 205 209 214 222 231 242 256 275 289 291 296 299 306 307 306 303 303 301 297 295 297 300 302 296
187 189 191 192 192 192 192 192 192 194 195 195 193 190 191 195 198 196 194 196 201 206 210 212 212 213 216 215 216 223 232 236 242 253 268 268 260 257 261 265 264 263 264 266 261 255 253 249 245 239 233 222 214 212 214 217 220 227 238 243 241 230 219 215 213 214 216 219 222 222 220 215 210 207 207 209 211 213 216 219 222 225 228 232 236 243 252 263 271 274 277 280 283 285 286 286 285 282 281 281 285 287 285
188 190 192 193 194 194 193 193 194 194 196 196 194 192 191 194 197 198 196 197 200 205 208 209 208 209 213 219 219 221 227 235 241 250 263 268 266 266 269 270 265 261 263 266 267 269 269 258 240 231 234 228 218 210 212 217 220 223 232 241 245 243 231 223 218 217 218 220 224 227 230 230 229 226 224 225 227 229 232 235 237 238 239 239 239 240 243 250 256 262 265 268 270 272 273 274 274 274 272 271 272 275 277
188 190 193 195 195 195 195 194 194 195 196 196 195 193 192 193 196 198 197 197 200 204 208 208 206 207 212 220 222 221 222 229 235 241 246 251 256 263 269 269 264 262 265 267 269 274 277 262 232 227 234 233 221 210 211 220 223 223 227 237 246 249 244 233 225 221 220 221 224 229 232 235 237 237 238 239 240 243 245 248 249 251 251 250 247 245 243 246 249 255 259 262 263 264 265 266 268 269 268 266 265 266 268
189 191 194 195 196 197 196 196 195 195 196 196 196 194 192 193 195 197 197 198 200 204 208 207 205 205 212 221 223 221 218 223 229 234 238 243 247 252 259 260 261 263 267 269 271 275 277 258 231 228 235 236 226 214 211 220 224 223 223 232 242 249 250 245 238 231 226 224 226 229 232 235 238 240 243 245 248 251 253 255 256 257 257 257 255 252 249 247 248 251 254 256 259 260 261 261 262 264 264 263 261 260 260
190 191 194 196 197 198 197 197 196 196 196 196 196 194 192 193 195 197 198 199 202 205 208 207 203 202 210 220 222 219 217 221 227 233 238 241 244 247 250 252 256 261 267 271 274 275 271 253 232 229 233 237 231 221 213 218 221 220 219 226 235 244 248 249 246 242 238 234 232 232 234 236 238 240 243 246 249 252 255 256 257 258 258 258 258 257 255 252 249 249 251 253 256 257 257 258 258 260 261 261 260 259 257
190 192 195 197 198 199 199 198 197 197 196 196 196 194 193 194 195 197 199 201 205 207 207 205 202 200 206 216 219 217 217 223 231 237 241 241 242 244 247 249 253 259 266 271 274 273 268 253 235 227 226 231 232 228 219 217 217 216 216 221 228 235 240 242 244 244 245 245 243 240 238 237 238 241 243 246 249 252 255 256 257 257 258 258 258 259 258 256 253 250 250 251 254 255 256 256 256 257 258 259 259 258 257
191 193 195 197 199 199 199 199 198 198 197 196 196 195 193 194 196 197 199 203 207 208 204 201 199 199 202 212 216 217 220 228 237 242 243 242 240 241 247 250 255 260 265 268 270 269 266 256 243 231 224 227 231 231 226 221 216 214 216 219 222 226 232 237 238 238 241 246 249 250 247 244 243 244 246 248 251 254 256 257 258 258 259 259 259 259 258 257 256 253 251 250 251 252 254 255 255 255 256 257 257 257 256
194 194 196 198 199 200 199 199 199 198 197 196 196 195 194 195 196 198 199 203 206 205 199 197 199 203 207 211 215 220 228 236 242 243 242 240 238 240 246 252 258 263 265 265 265 265 263 257 250 242 233 230 231 233 231 226 220 216 218 221 220 221 225 233 235 234 233 238 245 251 253 252 250 249 250 252 254 256 257 258 259 260 260 260 260 259 258 258 257 255 253 251 250 250 251 252 253 254 254 255 255 256 256
195 195 197 199 200 200 200 199 199 199 198 196 195 195 195 196 197 199 200 202 204 202 194 195 202 209 214 216 217 221 230 240 245 244 236 232 234 240 247 254 261 264 265 261 260 260 260 257 254 249 244 238 235 234 233 229 224 221 221 224 223 221 221 228 233 234 232 232 237 245 251 254 255 255 255 255 256 257 258 260 261 262 262 261 260 259 259 258 258 257 255 253 252 251 250 250 251 252 253 253 254 255 255
196 196 198 200 201 201 200 199 199 199 198 196 194 194 195 197 199 200 201 203 204 202 195 198 205 214 220 222 222 222 226 234 241 242 238 238 243 250 257 262 265 265 261 257 256 257 257 257 255 253 251 248 243 238 233 229 227 225 225 229 229 226 223 225 231 234 235 234 235 240 247 253 257 259 259 259 258 259 259 260 261 262 261 261 259 259 259 259 259 259 258 256 255 253 252 251 250 251 252 252 253 254 254
196 196 198 200 201 202 201 200 200 199 198 195 193 194 196 198 200 201 202 203 204 204 201 204 210 219 225 227 227 227 228 232 237 242 244 249 256 263 269 273 272 267 260 255 253 253 254 254 255 255 255 254 249 241 232 227 225 226 228 232 234 233 230 229 232 236 239 240 240 241 245 250 256 260 262 262 262 262 262 262 262 262 260 259 258 258 259 260 261 261 260 259 258 257 255 254 252 251 251 252 252 253 253
197 196 198 199 201 202 202 202 201 199 197 195 193 194 196 199 201 202 202 203 205 206 206 208 214 221 227 230 230 230 231 233 236 239 243 251 260 268 274 276 274 268 259 254 253 252 252 253 254 256 256 254 250 242 233 225 223 225 229 233 236 237 236 236 237 239 242 244 245 246 247 249 253 257 261 263 265 266 266 267 266 265 263 260 259 259 260 262 262 262 262 261 260 259 259 257 256 254 252 251 252 253 253
197 197 198 199 201 202 202 202 201 199 197 195 194 195 197 199 202 203 203 204 206 208 209 210 213 218 221 227 231 233 233 232 231 232 237 249 264 272 274 271 268 264 260 256 253 252 251 252 255 256 256 253 248 242 234 226 223 224 228 232 236 238 241 241 242 244 245 247 248 249 249 250 252 254 257 260 263 265 267 269 270 270 269 266 264 263 263 263 263 263 263 263 262 261 260 260 258 256 254 252 252 253 253
197 197 197 199 200 202 202 203 201 199 197 196 196 197 198 200 203 204 204 204 205 207 207 207 210 213 214 220 229 234 232 225 222 223 228 239 255 271 276 271 262 257 260 256 252 249 248 250 252 255 255 252 247 240 234 227 224 225 228 231 235 238 242 245 247 248 248 249 249 250 251 251 252 253 255 257 259 262 264 266 268 270 270 270 269 267 266 265 265 265 265 264 264 263 262 261 260 258 255 253 253 252 252
198 197 198 198 200 201 202 202 201 198 196 197 198 199 199 201 203 205 204 203 203 204 202 202 204 207 210 217 228 232 223 216 213 211 203 218 235 250 293 324 304 266 250 248 245 243 245 246 249 252 253 251 245 239 234 229 227 227 229 232 235 237 241 245 249 251 252 252 252 251 251 252 253 254 255 256 257 259 260 261 263 265 267 269 270 270 269 268 267 267 266 266 265 264 263 262 260 259 256 254 252 252 252
199 198 198 199 200 200 201 202 201 198 195 195 197 199 199 201 204 205 204 203 203 203 202 199 199 202 206 213 224 227 214 209 210 211 206 207 226 255 288 332 351 342 319 254 239 239 241 244 247 249 247 246 242 237 233 231 229 230 232 234 236 238 240 243 247 251 255 257 257 255 254 254 255 256 257 257 258 258 259 259 259 260 263 266 268 270 271 271 270 270 268 267 265 264 263 262 261 260 257 254 252 251 250
200 199 199 199 200 200 200 202 201 199 196 195 196 198 199 201 204 205 204 204 204 204 203 201 198 198 203 212 218 216 206 207 212 218 220 211 212 238 284 25 59 239 252 359 346 297 250 243 245 247 246 242 238 234 232 232 233 234 235 237 238 240 241 241 243 247 252 257 259 259 258 257 257 258 259 259 259 259 259 259 259 259 260 263 265 268 270 271 272 272 271 269 267 266 265 264 263 262 260 256 253 250 249
200 200 200 200 199 199 200 202 201 200 198 197 198 198 199 201 203 204 204 204 204 204 202 201 200 199 199 209 213 210 204 212 220 225 227 223 216 204 47 121 214 227 212 120 45 319 301 254 247 250 252 244 237 233 233 234 236 239 240 241 242 244 243 242 241 243 247 252 257 259 260 260 260 260 260 261 261 261 261 260 260 260 260 261 263 265 268 270 271 272 272 271 270 269 268 268 267 265 263 259 255 251 248
201 200 200 200 199 199 200 201 201 200 199 199 199 199 199 200 202 204 204 204 204 203 202 200 200 200 199 203 207 209 208 217 226 231 232 233 226 211 174 163 291 342 353 46 114 231 263 273 266 261 258 243 234 231 233 235 239 242 244 245 246 246 245 244 242 241 243 249 254 257 259 261 261 262 262 263 263 263 262 262 261 261 261 261 262 263 265 267 268 269 270 271 271 271 271 270 269 267 265 262 258 253 249
202 201 200 200 199 199 200 201 201 200 198 199 199 199 199 200 201 203 204 204 204 204 204 202 201 202 204 204 205 207 208 215 225 233 234 235 230 224 217 195 127 71 9 321 250 234 247 326 343 326 257 230 227 229 234 238 240 243 247 249 250 250 249 248 246 245 246 248 252 255 258 260 261 262 264 265 265 265 264 263 262 261 261 261 261 262 263 264 264 266 267 269 270 270 270 270 269 267 265 262 258 254 249
202 201 201 200 200 200 199 200 200 199 198 198 199 199 199 200 201 203 204 204 204 205 207 207 207 207 208 209 209 208 206 207 217 228 234 234 231 227 224 225 216 192 188 187 207 252 309 352 8 23 309 242 235 238 242 246 246 247 250 253 254 254 253 252 251 250 250 251 252 254 257 259 261 263 265 267 267 267 267 265 264 262 261 261 261 261 262 262 262 263 264 266 268 269 269 268 267 266 264 261 257 253 248
202 202 201 201 200 200 199 199 198 198 198 199 199 199 198 199 201 202 204 204 205 206 209 211 211 211 211 212 213 214 211 205 208 218 227 232 231 228 226 226 230 237 246 237 236 291 344 25 49 122 317 314 265 245 249 247 248 251 254 257 258 258 257 255 254 254 253 253 254 255 257 258 260 262 265 267 268 269 269 268 266 264 262 261 260 260 260 261 261 262 263 265 266 267 268 267 266 265 262 259 255 250 246
202 202 201 201 200 200 200 199 198 197 198 199 199 198 197 198 200 202 204 205 206 208 209 212 214 214 213 213 214 218 221 216 212 211 215 223 229 231 230 229 231 235 241 250 260 271 278 53 151 181 25 334 312 281 252 243 245 251 257 262 264 263 260 258 256 256 255 255 256 256 257 259 261 262 264 266 268 269 270 270 269 267 264 262 260 259 259 259 260 261 262 264 265 267 267 267 266 264 261 257 253 248 243
201 201 201 200 200 201 201 199 197 197 197 198 198 198 197 198 200 202 203 205 207 209 211 212 214 215 215 214 214 218 223 226 222 214 207 208 225 235 236 235 234 237 240 245 252 259 263 252 239 222 132 230 290 303 295 267 259 260 263 267 268 266 263 260 259 258 258 258 258 258 258 260 261 262 262 264 265 267 269 269 269 268 266 264 262 260 259 260 260 261 263 264 266 267 267 267 266 264 261 256 251 246 241
200 200 199 199 200 200 200 199 197 196 197 198 198 199 198 198 199 201 202 204 206 209 212 213 214 215 215 214 215 217 220 226 226 219 215 211 222 238 239 238 239 240 242 244 248 253 257 260 261 259 245 210 219 275 288 290 285 278 273 272 270 267 263 262 262 262 262 262 261 260 260 260 261 261 261 262 263 265 266 267 268 269 268 267 265 264 263 262 263 264 265 265 266 267 267 266 265 263 259 254 249 243 239